Chamberlain, SD

1:15 PM CST on December 14, 2017 (GMT -0600)
Chamberlain

Weather History for K9V9 - March, 2014

Change the Weather History Date:

Friday, March 14, 2014

  Actual Average Record
Temperature  
Mean Temperature 44 °F -  
Max Temperature 57 °F 38 °F 77 °F (2003)
Min Temperature 32 °F 20 °F 7 °F (1997)
Degree Days  
Heating Degree Days 22    
Moisture  
Dew Point 25 °F    
Average Humidity 51    
Maximum Humidity 79    
Minimum Humidity 25    
Precipitation  
Precipitation 0.00 in - - ()
Sea Level Pressure  
Sea Level Pressure 29.87 in    
Wind  
Wind Speed 12 mph (NNW)    
Max Wind Speed 20 mph    
Max Gust Speed 26 mph    
Averages and records for this station are not official NWS values.
T = Trace of Precipitation, MM = Missing Value Source: NWS Daily Summary

Daily Weather History Graph

Daily Weather History Graph

Search for Another Location

Airport or City:

Trip Planner

Search our weather history database for the weather conditions in past years. The results will help you decide how hot, cold, wet, or windy it might be!

Date:

Astronomy

Mar. 14, 2014 Rise Set
Actual Time 7:51 AM CDT 7:42 PM CDT
Civil Twilight 7:22 AM CDT 8:11 PM CDT
Nautical Twilight 6:49 AM CDT 8:44 PM CDT
Astronomical Twilight 6:15 AM CDT 9:18 PM CDT
Moon 6:03 PM CDT 6:34 AM CDT
Length of Visible Light 12h 48m
Length of Day
11h 51m
Waxing Gibbous, 96% of the Moon is Illuminated
Mar 14
Waxing Gibbous
Mar 16
Full
Mar 23
Last Quarter
Mar 30
New
Apr 7
First Quarter

Hourly Weather History & Observations

Time (CDT) Temp. Windchill Dew Point Humidity Pressure Visibility Wind Dir Wind Speed Gust Speed Precip Events Conditions
12:52 AM 45.0 °F 38.9 °F 28.0 °F 52% 29.74 in - NW 12.7 mph 20.7 mph N/A   Unknown
1:52 AM 39.9 °F 32.9 °F 28.0 °F 63% 29.78 in - NW 11.5 mph - N/A   Unknown
2:52 AM 37.9 °F 32.7 °F 28.0 °F 68% 29.80 in - NW 6.9 mph - N/A   Unknown
3:52 AM 37.9 °F 30.0 °F 28.0 °F 68% 29.82 in - NW 12.7 mph - N/A   Unknown
4:52 AM 36.0 °F 27.1 °F 28.0 °F 73% 29.83 in - NW 13.8 mph - N/A   Unknown
5:52 AM 35.1 °F 26.4 °F 27.0 °F 72% 29.85 in - NW 12.7 mph - N/A   Unknown
6:52 AM 34.0 °F 25.0 °F 27.0 °F 75% 29.87 in - WNW 12.7 mph 21.9 mph N/A   Unknown
7:52 AM 32.0 °F 23.0 °F 26.1 °F 79% 29.89 in - WNW 11.5 mph - N/A   Unknown
8:52 AM 35.1 °F 25.5 °F 27.0 °F 72% 29.91 in - WNW 15.0 mph - N/A   Unknown
9:52 AM 39.9 °F 31.8 °F 27.0 °F 60% 29.92 in - NW 15.0 mph 21.9 mph N/A   Unknown
10:52 AM 45.0 °F 38.5 °F 25.0 °F 46% 29.93 in - NW 13.8 mph - N/A   Unknown
11:52 AM 48.0 °F - 19.9 °F 33% 29.93 in - NNW 16.1 mph 24.2 mph N/A   Unknown
12:52 PM 50.0 °F - 18.0 °F 28% 29.93 in - NW 16.1 mph 25.3 mph N/A   Unknown
1:52 PM 53.1 °F - 18.0 °F 25% 29.90 in - NW 19.6 mph 26.5 mph N/A   Unknown
2:52 PM 54.0 °F - 19.9 °F 26% 29.89 in - NW 16.1 mph 26.5 mph N/A   Unknown
3:52 PM 55.0 °F - 23.0 °F 29% 29.88 in - NW 13.8 mph 26.5 mph N/A   Unknown
4:52 PM 55.9 °F - 24.1 °F 29% 29.88 in - NNW 10.4 mph - N/A   Unknown
5:52 PM 55.9 °F - 23.0 °F 28% 29.87 in - NE 6.9 mph - N/A   Unknown
6:52 PM 53.1 °F - 24.1 °F 32% 29.87 in - NE 5.8 mph - N/A   Unknown
7:52 PM 44.1 °F 40.1 °F 24.1 °F 45% 29.89 in - ENE 6.9 mph - N/A   Unknown
8:52 PM 42.1 °F 37.1 °F 24.1 °F 49% 29.90 in - ENE 8.1 mph - N/A   Unknown
9:52 PM 41.0 °F 34.7 °F 25.0 °F 53% 29.89 in - East 10.4 mph - N/A   Unknown
10:52 PM 37.0 °F 30.4 °F 25.0 °F 62% 29.89 in - ESE 9.2 mph - N/A   Unknown
11:52 PM 37.9 °F 30.5 °F 26.1 °F 62% 29.89 in - East 11.5 mph - N/A   Unknown